Location: Newark
(45.2500°N, 7.5833°E)
Time: 06:00:16
(UTC+00:00)

Transit 2A Rocket - Visible Passes

Search period start: 19 January 2020 00:00
Search period end: 29 January 2020 00:00
Orbit: 593 x 910 km, 66.7° (Epoch: 18 January)

Date Brightness Start Highest point End Pass type
(mag) Time Alt. Az. Time Alt. Az. Time Alt. Az.
19 Jan 7.7 05:01:31 10° SE 05:04:00 15° ESE 05:06:27 10° ENE visible
20 Jan 4.7 05:59:09 10° SSW 06:03:28 76° ESE 06:07:48 10° NE visible
21 Jan 5.9 05:16:59 10° S 05:21:02 40° ESE 05:25:05 10° NE visible
22 Jan 6.9 04:35:20 10° SSE 04:38:41 22° ESE 04:42:02 10° ENE visible
22 Jan 4.9 06:16:52 10° WSW 06:20:57 41° NW 06:25:06 10° NNE visible
23 Jan 7.6 03:54:48 10° SE 03:56:27 12° ESE 03:58:07 10° E visible
23 Jan 4.4 05:34:02 10° SW 05:38:20 73° NW 05:42:41 10° NNE visible
24 Jan 4.9 04:52:26 16° SSW 04:55:49 61° ESE 05:00:06 10° NE visible
25 Jan 6.1 04:12:37 30° SE 04:13:26 33° ESE 04:17:18 10° NE visible
25 Jan 5.3 05:52:36 12° WSW 05:55:57 30° NW 05:59:49 10° NNE visible
26 Jan 7.2 03:32:17 16° E 03:32:17 16° E 03:34:04 10° ENE visible
26 Jan 4.6 05:12:15 40° W 05:13:15 50° NW 05:17:30 10° NNE visible
27 Jan 4.9 04:31:34 56° NNE 04:31:34 56° NNE 04:35:02 10° NNE visible
27 Jan 6.3 06:11:31 10° WNW 06:13:54 15° NW 06:16:26 10° N visible
28 Jan 6.7 03:50:42 22° NE 03:50:42 22° NE 03:52:24 10° NE visible
28 Jan 5.7 05:30:38 22° NW 05:31:00 22° NW 05:34:29 10° N visible
